GALAXY 25 (G-25) 1 24812U 97026A 21065.77965309 .00000138 00000-0 00000+0 0 9992 2 24812 2.5471 88.1409 0002592 300.5364 89.5751 1.00274182 87035 SL-12 R/B(2) 1 24815U 97026D 21065.42131873 .00000030 00000-0 00000-0 0 9990 2 24815 17.1074 234.4147 5364425 28.4668 125.6072 1.89869692164934